Terminal Aerodrome Forecast
Issued by NWS

Current Version | Previous Version | Text Only | Print | Product List | Glossary Off
Versions: 1 2 3 4 5 6 7 8 9 10 11 12 13 14 15 16 17 18 19 20

000
FTUS41 KILN 271000 AAA
TAFLCK
TAF AMD
KLCK 271045Z 2711/2806 22005KT 5SM BR FEW002 SCT100
     FM271300 22008KT P6SM SCT030 BKN100
     FM271700 26012G22KT P6SM -SHRA VCTS BKN035CB
     FM280000 28011KT P6SM SCT050 BKN250=

USA.gov is the U.S. government's official web portal to all federal, state and local government web resources and services.